When you browse on this site, cookies collect data to enhance your experience and personalize the content and advertising you see.
Visit our Privacy Policy to learn more. By continuing to use the site, you agree to this use of cookies and data.
  • In Czech Republic
  • List of Countries
  • For 7 days
  • Water Temperature
  • Satellite Maps
  • Weather Map
  • Weather Widgets
  • user-avatar
    Login

    Hourly Weather Marrakesh

    Today, 20 March, Wednesday

    Time Temperature Precipitation Wind Pressure Humidity
    00:00 +17°C° 0 mm 2 mps 722 mmHg 47%
    01:00 +16°C° 0 mm 1 mps 721 mmHg 47%
    02:00 +16°C° 0 mm 1 mps 721 mmHg 47%
    03:00 +15°C° 0 mm 1 mps 721 mmHg 48%
    04:00 +15°C° 0 mm 1 mps 721 mmHg 49%
    05:00 +15°C° 0 mm 2 mps 721 mmHg 49%
    06:00 +16°C° 0 mm 1 mps 721 mmHg 44%
    07:00 +19°C° 0 mm 1 mps 721 mmHg 39%
    08:00 +21°C° 0 mm 1 mps 722 mmHg 34%
    09:00 +22°C° 0 mm 1 mps 722 mmHg 30%
    10:00 +24°C° 0 mm 1 mps 722 mmHg 25%
    11:00 +25°C° 0 mm 2 mps 722 mmHg 21%
    12:00 +26°C° 0 mm 2 mps 721 mmHg 20%
    13:00 +27°C° 0 mm 2 mps 721 mmHg 18%
    14:00 +27°C° 0 mm 2 mps 721 mmHg 17%
    15:00 +27°C° 0 mm 2 mps 720 mmHg 18%
    16:00 +27°C° 0 mm 2 mps 720 mmHg 19%
    17:00 +26°C° 0 mm 2 mps 720 mmHg 20%
    18:00 +24°C° 0 mm 2 mps 721 mmHg 26%
    19:00 +21°C° 0 mm 3 mps 721 mmHg 32%
    20:00 +19°C° 0 mm 3 mps 721 mmHg 37%
    21:00 +18°C° 0 mm 3 mps 721 mmHg 40%
    22:00 +17°C° 0 mm 2 mps 721 mmHg 44%
    23:00 +16°C° 0 mm 1 mps 721 mmHg 47%

    Tomorrow, 21 March, Thursday

    Time Temperature Precipitation Wind Pressure Humidity
    00:00 +16°C° 0 mm 1 mps 721 mmHg 48%
    01:00 +15°C° 0 mm 1 mps 720 mmHg 49%
    02:00 +15°C° 0 mm 1 mps 720 mmHg 50%
    03:00 +14°C° 0 mm 1 mps 720 mmHg 49%
    04:00 +14°C° 0 mm 1 mps 720 mmHg 49%
    05:00 +14°C° 0 mm 1 mps 720 mmHg 49%
    06:00 +15°C° 0 mm 1 mps 720 mmHg 43%
    07:00 +18°C° 0 mm 1 mps 721 mmHg 37%
    08:00 +20°C° 0 mm 1 mps 721 mmHg 30%
    09:00 +20°C° 0 mm 2 mps 721 mmHg 27%
    10:00 +22°C° 0 mm 3 mps 721 mmHg 24%
    11:00 +25°C° 0 mm 4 mps 721 mmHg 21%
    12:00 +25°C° 0 mm 4 mps 720 mmHg 20%
    13:00 +26°C° 0 mm 5 mps 720 mmHg 18%
    14:00 +27°C° 0 mm 6 mps 719 mmHg 17%
    15:00 +26°C° 0 mm 5 mps 719 mmHg 17%
    16:00 +25°C° 0 mm 4 mps 719 mmHg 18%
    17:00 +23°C° 0 mm 4 mps 719 mmHg 18%
    18:00 +21°C° 0 mm 3 mps 720 mmHg 26%
    19:00 +20°C° 0 mm 3 mps 720 mmHg 33%
    20:00 +18°C° 0 mm 2 mps 720 mmHg 40%
    21:00 +17°C° 0 mm 2 mps 720 mmHg 42%
    22:00 +16°C° 0 mm 2 mps 720 mmHg 45%
    23:00 +16°C° 0 mm 2 mps 720 mmHg 48%

    Day after tomorrow, 22 March, Friday

    Time Temperature Precipitation Wind Pressure Humidity
    00:00 +15°C° 0 mm 2 mps 720 mmHg 48%
    01:00 +15°C° 0 mm 2 mps 720 mmHg 48%
    02:00 +14°C° 0 mm 2 mps 720 mmHg 48%
    03:00 +14°C° 0 mm 2 mps 720 mmHg 47%
    04:00 +14°C° 0 mm 2 mps 720 mmHg 46%
    05:00 +14°C° 0 mm 2 mps 720 mmHg 45%
    06:00 +16°C° 0 mm 2 mps 720 mmHg 39%
    07:00 +18°C° 0 mm 2 mps 721 mmHg 33%
    08:00 +20°C° 0 mm 2 mps 721 mmHg 27%
    09:00 +23°C° 0 mm 2 mps 721 mmHg 23%
    10:00 +24°C° 0 mm 1 mps 721 mmHg 19%
    11:00 +26°C° 0 mm 1 mps 721 mmHg 16%
    12:00 +27°C° 0 mm 2 mps 721 mmHg 14%
    13:00 +28°C° 0 mm 3 mps 720 mmHg 13%
    14:00 +28°C° 0 mm 3 mps 720 mmHg 12%
    15:00 +28°C° 0 mm 3 mps 720 mmHg 13%
    16:00 +27°C° 0 mm 3 mps 720 mmHg 14%
    17:00 +27°C° 0 mm 3 mps 720 mmHg 15%
    18:00 +25°C° 0 mm 3 mps 720 mmHg 19%
    19:00 +22°C° 0 mm 3 mps 720 mmHg 23%
    20:00 +20°C° 0 mm 3 mps 720 mmHg 27%
    21:00 +19°C° 0 mm 3 mps 720 mmHg 29%
    22:00 +19°C° 0 mm 2 mps 720 mmHg 31%
    23:00 +18°C° 0 mm 2 mps 720 mmHg 33%

    23 March, Saturday

    Time Temperature Precipitation Wind Pressure Humidity
    00:00 +18°C° 0 mm 2 mps 720 mmHg 33%
    01:00 +18°C° 0 mm 2 mps 719 mmHg 32%
    02:00 +17°C° 0 mm 2 mps 719 mmHg 32%
    03:00 +17°C° 0 mm 3 mps 719 mmHg 31%
    04:00 +17°C° 0 mm 3 mps 719 mmHg 30%
    05:00 +17°C° 0 mm 3 mps 719 mmHg 30%
    06:00 +19°C° 0 mm 3 mps 719 mmHg 27%
    07:00 +20°C° 0 mm 4 mps 719 mmHg 25%
    08:00 +22°C° 0 mm 4 mps 720 mmHg 22%
    09:00 +24°C° 0 mm 3 mps 720 mmHg 20%
    10:00 +25°C° 0 mm 3 mps 720 mmHg 19%
    11:00 +26°C° 0 mm 3 mps 720 mmHg 17%
    12:00 +26°C° 0 mm 4 mps 720 mmHg 19%
    13:00 +25°C° 0 mm 5 mps 719 mmHg 20%
    14:00 +23°C° 0 mm 7 mps 719 mmHg 22%
    15:00 +23°C° 0 mm 6 mps 719 mmHg 24%
    16:00 +22°C° 0 mm 6 mps 719 mmHg 27%
    17:00 +21°C° 0 mm 5 mps 719 mmHg 29%
    18:00 +20°C° 0 mm 4 mps 719 mmHg 31%
    19:00 +20°C° 0 mm 3 mps 720 mmHg 34%
    20:00 +19°C° 0 mm 2 mps 720 mmHg 36%
    21:00 +18°C° 0 mm 2 mps 720 mmHg 40%
    22:00 +18°C° 0 mm 2 mps 719 mmHg 44%
    23:00 +17°C° 0 mm 2 mps 719 mmHg 48%

    24 March, Sunday

    Time Temperature Precipitation Wind Pressure Humidity
    00:00 +17°C° 0 mm 2 mps 719 mmHg 51%
    01:00 +16°C° 0 mm 1 mps 718 mmHg 55%
    02:00 +16°C° 0 mm 1 mps 718 mmHg 58%
    03:00 +15°C° 0.1 mm 1 mps 718 mmHg 59%
    04:00 +15°C° 0.1 mm 1 mps 718 mmHg 60%
    05:00 +14°C° 0.1 mm 1 mps 718 mmHg 61%
    06:00 +15°C° 0 mm 0 mps 718 mmHg 54%
    07:00 +16°C° 0 mm 0 mps 718 mmHg 47%
    08:00 +18°C° 0 mm 0 mps 719 mmHg 40%
    09:00 +21°C° 0 mm 1 mps 719 mmHg 35%
    10:00 +23°C° 0 mm 2 mps 719 mmHg 30%
    11:00 +24°C° 0 mm 2 mps 719 mmHg 26%
    12:00 +25°C° 0 mm 3 mps 718 mmHg 25%
    13:00 +25°C° 0 mm 3 mps 718 mmHg 24%
    14:00 +26°C° 0 mm 3 mps 718 mmHg 23%
    15:00 +25°C° 0 mm 4 mps 718 mmHg 25%
    16:00 +23°C° 0 mm 4 mps 718 mmHg 28%
    17:00 +23°C° 0 mm 5 mps 718 mmHg 31%
    18:00 +21°C° 0.2 mm 4 mps 718 mmHg 39%
    19:00 +19°C° 0.2 mm 4 mps 719 mmHg 47%
    20:00 +18°C° 0.2 mm 3 mps 719 mmHg 55%
    21:00 +18°C° 0 mm 2 mps 719 mmHg 56%
    22:00 +18°C° 0 mm 1 mps 718 mmHg 57%
    23:00 +16°C° 0 mm 0 mps 718 mmHg 58%

    25 March, Monday

    Time Temperature Precipitation Wind Pressure Humidity
    00:00 +16°C° 0 mm 0 mps 718 mmHg 58%
    01:00 +16°C° 0 mm 0 mps 718 mmHg 58%
    02:00 +18°C° 0 mm 1 mps 717 mmHg 58%
    03:00 +16°C° 0 mm 1 mps 717 mmHg 60%
    04:00 +15°C° 0 mm 1 mps 717 mmHg 62%
    05:00 +14°C° 0 mm 0 mps 717 mmHg 64%
    06:00 +16°C° 0 mm 1 mps 718 mmHg 58%
    07:00 +19°C° 0 mm 1 mps 718 mmHg 52%
    08:00 +19°C° 0 mm 2 mps 718 mmHg 46%
    09:00 +21°C° 0 mm 2 mps 718 mmHg 41%
    10:00 +23°C° 0 mm 2 mps 718 mmHg 37%
    11:00 +24°C° 0 mm 3 mps 718 mmHg 32%
    12:00 +25°C° 0 mm 3 mps 717 mmHg 30%
    13:00 +26°C° 0 mm 3 mps 717 mmHg 28%
    14:00 +27°C° 0 mm 3 mps 717 mmHg 26%
    15:00 +25°C° 0.4 mm 3 mps 716 mmHg 31%
    16:00 +24°C° 0.4 mm 3 mps 716 mmHg 36%
    17:00 +22°C° 0.4 mm 3 mps 716 mmHg 41%
    18:00 +21°C° 0.7 mm 3 mps 717 mmHg 46%
    19:00 +20°C° 0.7 mm 3 mps 717 mmHg 51%
    20:00 +19°C° 0.7 mm 3 mps 718 mmHg 56%
    21:00 +18°C° 0 mm 3 mps 718 mmHg 60%
    22:00 +18°C° 0 mm 3 mps 717 mmHg 65%
    23:00 +17°C° 0 mm 3 mps 717 mmHg 69%
    Show more